TimeEST,TemperatureF,Dew PointF,Humidity,Sea Level PressureIn,VisibilityMPH,Wind Direction,Wind SpeedMPH,Gust SpeedMPH,PrecipitationIn,Events,Conditions,WindDirDegrees,DateUTC
12:53 AM,37.9,27.0,65,30.18,9.0,SSE,6.9,-,0.01,Rain,Light Rain,160,2013-02-11 05:53:00
1:53 AM,35.1,32.0,89,30.15,4.0,SE,5.8,-,0.03,Rain,Light Rain,130,2013-02-11 06:53:00
2:36 AM,35.6,32.0,87,30.11,2.5,SE,5.8,-,0.03,Rain,Light Rain,140,2013-02-11 07:36:00
2:44 AM,35.6,32.0,87,30.11,3.0,SE,5.8,-,0.04,Rain,Light Rain,140,2013-02-11 07:44:00
2:53 AM,35.1,32.0,89,30.12,4.0,SSE,6.9,-,0.05,Rain,Light Rain,150,2013-02-11 07:53:00
3:10 AM,35.6,32.0,87,30.09,2.5,SE,5.8,-,0.01,Rain,Light Rain,140,2013-02-11 08:10:00
3:18 AM,35.6,32.0,87,30.08,3.0,SE,6.9,-,0.02,Rain,Light Rain,140,2013-02-11 08:18:00
3:51 AM,35.6,32.0,87,30.06,5.0,SE,4.6,-,0.05,Rain,Light Rain,140,2013-02-11 08:51:00
3:53 AM,35.1,32.0,89,30.07,6.0,SSE,5.8,-,0.05,Rain,Light Rain,150,2013-02-11 08:53:00
4:53 AM,35.1,33.1,92,30.04,7.0,SE,5.8,-,0.00,,Overcast,130,2013-02-11 09:53:00
5:53 AM,36.0,34.0,93,30.01,8.0,SE,4.6,-,0.01,,Overcast,140,2013-02-11 10:53:00
6:53 AM,37.0,35.1,93,29.99,9.0,Calm,Calm,-,N/A,,Overcast,0,2013-02-11 11:53:00
7:26 AM,37.4,35.6,93,29.96,8.0,Calm,Calm,-,N/A,,Overcast,0,2013-02-11 12:26:00
7:53 AM,37.9,35.1,89,29.97,8.0,SE,3.5,-,N/A,,Mostly Cloudy,140,2013-02-11 12:53:00
8:53 AM,41.0,37.9,89,29.94,10.0,SE,4.6,-,N/A,,Partly Cloudy,140,2013-02-11 13:53:00
9:21 AM,42.8,39.2,87,29.94,10.0,SSW,5.8,-,N/A,,Scattered Clouds,210,2013-02-11 14:21:00
9:53 AM,46.0,41.0,83,29.93,10.0,Variable,5.8,-,N/A,,Scattered Clouds,0,2013-02-11 14:53:00
10:53 AM,48.9,42.1,77,29.89,10.0,SSE,8.1,-,N/A,,Clear,160,2013-02-11 15:53:00
11:53 AM,55.0,45.0,69,29.83,10.0,South,6.9,-,N/A,,Clear,170,2013-02-11 16:53:00
12:53 PM,55.9,46.0,69,29.78,10.0,South,9.2,-,N/A,,Clear,180,2013-02-11 17:53:00
1:53 PM,60.1,46.9,62,29.74,10.0,SE,6.9,-,N/A,,Partly Cloudy,140,2013-02-11 18:53:00
2:53 PM,63.0,48.0,58,29.70,3.0,SSE,8.1,-,N/A,,Haze,150,2013-02-11 19:53:00
3:53 PM,63.0,46.9,56,29.69,10.0,SSE,6.9,-,N/A,,Mostly Cloudy,160,2013-02-11 20:53:00
4:53 PM,64.9,39.0,39,29.68,10.0,WSW,11.5,-,N/A,,Mostly Cloudy,250,2013-02-11 21:53:00
5:53 PM,63.0,27.0,26,29.68,10.0,WSW,9.2,-,N/A,,Clear,240,2013-02-11 22:53:00
6:53 PM,57.9,24.1,27,29.71,10.0,WSW,9.2,-,N/A,,Clear,250,2013-02-11 23:53:00
7:53 PM,55.0,24.1,30,29.73,10.0,West,11.5,-,N/A,,Clear,270,2013-02-12 00:53:00
8:53 PM,57.0,19.0,23,29.76,10.0,WNW,25.3,32.2,N/A,,Clear,290,2013-02-12 01:53:00
9:53 PM,54.0,21.9,29,29.79,10.0,West,15.0,28.8,N/A,,Clear,280,2013-02-12 02:53:00
10:53 PM,50.0,28.0,43,29.83,10.0,WNW,15.0,24.2,N/A,,Clear,290,2013-02-12 03:53:00
11:53 PM,48.9,27.0,43,29.84,10.0,WNW,26.5,39.1,N/A,,Clear,300,2013-02-12 04:53:00